Greenville, MS

7:13 AM CDT on June 28, 2017 (GMT -0500)
Mid Delta Regional

Weather History for KGLH - August, 2014

Change the Weather History Date:

Sunday, August 31, 2014

  Actual Average Record
Temperature  
Mean Temperature 82 °F 80 °F  
Max Temperature 89 °F 91 °F 104 °F (1985)
Min Temperature 74 °F 69 °F 54 °F (1946)
Degree Days  
Heating Degree Days 0 0  
Month to date heating degree days 0 0  
Since 1 June heating degree days 0 0  
Since 1 July heating degree days 0 0  
Cooling Degree Days 17 15  
Month to date cooling degree days 488 510  
Year to date cooling degree days 1667 1779  
Since 1 June cooling degree days 1352 1457  
Growing Degree Days 30 (Base 50)    
Moisture  
Dew Point 73 °F    
Average Humidity 79    
Maximum Humidity 94    
Minimum Humidity 63    
Precipitation  
Precipitation 0.21 in 0.11 in 4.20 in (1950)
Month to date precipitation 3.90 2.46  
Year to date precipitation 39.72 34.56  
Sea Level Pressure  
Sea Level Pressure 30.03 in    
Wind  
Wind Speed 8 mph (South)    
Max Wind Speed 24 mph    
Max Gust Speed 30 mph    
Visibility 10 miles    
Events Rain , Thunderstorm    
T = Trace of Precipitation, MM = Missing Value Source: NWS Daily Summary

Daily Weather History Graph

Daily Weather History Graph

Search for Another Location

Airport or City:

Trip Planner

Search our weather history database for the weather conditions in past years. The results will help you decide how hot, cold, wet, or windy it might be!

Date:

Astronomy

Aug. 31, 2014 Rise Set
Actual Time 6:37 AM CDT 7:30 PM CDT
Civil Twilight 6:11 AM CDT 7:55 PM CDT
Nautical Twilight 5:41 AM CDT 8:25 PM CDT
Astronomical Twilight 5:10 AM CDT 8:56 PM CDT
Moon 12:06 PM CDT (8/31) 11:04 PM CDT (8/31)
Length of Visible Light 13h 43m
Length of Day
12h 53m
Waxing Crescent, 32% of the Moon is Illuminated
Aug 31
Waxing Crescent
Sep 2
First Quarter
Sep 8
Full
Sep 15
Last Quarter
Sep 24
New

Hourly Weather History & Observations

Time (CDT) Temp. Heat Index Dew Point Humidity Pressure Visibility Wind Dir Wind Speed Gust Speed Precip Events Conditions
12:19 AM 75.2 °F - 73.4 °F 94% 29.99 in 10.0 mi South 8.1 mph - N/A   Overcast
12:33 AM 75.2 °F - 73.4 °F 94% 29.99 in 10.0 mi South 8.1 mph - N/A   Overcast
12:53 AM 75.9 °F - 73.0 °F 91% 30.01 in 10.0 mi South 6.9 mph - N/A   Overcast
1:17 AM 75.2 °F - 73.4 °F 94% 29.99 in 10.0 mi South 6.9 mph - N/A   Overcast
1:30 AM 75.2 °F - 73.4 °F 94% 29.99 in 10.0 mi South 6.9 mph - N/A   Overcast
1:53 AM 75.0 °F - 73.0 °F 94% 30.01 in 10.0 mi SSE 6.9 mph - N/A   Overcast
2:31 AM 73.4 °F - 73.4 °F 100% 29.99 in 10.0 mi South 6.9 mph - N/A   Overcast
2:53 AM 73.9 °F - 72.0 °F 93% 30.02 in 10.0 mi South 8.1 mph - N/A   Overcast
3:01 AM 73.4 °F - 71.6 °F 94% 30.00 in 10.0 mi South 8.1 mph - N/A   Overcast
3:08 AM 73.4 °F - 71.6 °F 94% 30.00 in 10.0 mi South 8.1 mph - N/A   Overcast
3:29 AM 73.4 °F - 71.6 °F 94% 30.00 in 10.0 mi South 6.9 mph - N/A   Overcast
3:53 AM 73.9 °F - 72.0 °F 93% 30.02 in 10.0 mi South 5.8 mph - N/A   Overcast
4:53 AM 73.9 °F - 72.0 °F 93% 30.03 in 10.0 mi South 5.8 mph - N/A   Overcast
5:53 AM 73.9 °F - 72.0 °F 93% 30.05 in 10.0 mi South 5.8 mph - N/A   Overcast
6:53 AM 73.9 °F - 72.0 °F 93% 30.06 in 10.0 mi South 8.1 mph - N/A   Overcast
7:23 AM 73.4 °F - 71.6 °F 94% 30.05 in 9.0 mi South 5.8 mph - N/A   Overcast
7:39 AM 75.2 °F - 71.6 °F 89% 30.05 in 10.0 mi South 6.9 mph - N/A   Overcast
7:53 AM 75.0 °F - 73.0 °F 94% 30.07 in 10.0 mi South 9.2 mph - N/A   Overcast
8:09 AM 75.2 °F - 73.4 °F 94% 30.06 in 10.0 mi SSW 6.9 mph - N/A   Mostly Cloudy
8:39 AM 78.8 °F - 73.4 °F 83% 30.05 in 10.0 mi SW 6.9 mph - N/A   Overcast
8:53 AM 78.1 °F - 72.0 °F 81% 30.07 in 9.0 mi SSW 11.5 mph - N/A   Overcast
9:53 AM 79.0 °F - 72.0 °F 79% 30.08 in 10.0 mi SW 10.4 mph - N/A   Partly Cloudy
10:34 AM 80.6 °F 85.4 °F 73.4 °F 79% 30.08 in 10.0 mi SW 11.5 mph - N/A   Mostly Cloudy
10:53 AM 81.0 °F 85.8 °F 73.0 °F 77% 30.09 in 10.0 mi SSW 13.8 mph - N/A   Mostly Cloudy
11:43 AM 82.4 °F 88.2 °F 73.4 °F 74% 30.07 in 10.0 mi SW 11.5 mph - N/A   Mostly Cloudy
11:53 AM 84.0 °F 91.2 °F 73.9 °F 72% 30.09 in 10.0 mi SW 8.1 mph - N/A   Mostly Cloudy
12:53 PM 84.9 °F 92.1 °F 73.9 °F 69% 30.06 in 10.0 mi SW 8.1 mph - N/A   Scattered Clouds
1:53 PM 86.0 °F 93.0 °F 73.0 °F 65% 30.04 in 10.0 mi SW 10.4 mph - N/A   Clear
2:53 PM 88.0 °F 96.5 °F 73.9 °F 63% 30.03 in 10.0 mi South 10.4 mph - N/A   Mostly Cloudy
3:36 PM 78.8 °F - 71.6 °F 78% 30.01 in 2.5 mi South 24.2 mph 29.9 mph 0.10 in Rain Heavy Rain
3:53 PM 79.0 °F - 73.9 °F 84% 30.03 in 10.0 mi SSE 4.6 mph - 0.14 in   Scattered Clouds
4:11 PM 80.6 °F 86.2 °F 75.2 °F 84% 30.01 in 3.0 mi South 8.1 mph - 0.05 in Rain , Thunderstorm Thunderstorms and Rain
4:26 PM 82.4 °F 90.9 °F 77.0 °F 84% 30.01 in 10.0 mi SSE 4.6 mph - 0.07 in Rain Light Rain
4:53 PM 84.0 °F 93.7 °F 77.0 °F 79% 30.01 in 10.0 mi South 4.6 mph - 0.07 in   Clear
5:53 PM 84.9 °F 94.1 °F 75.9 °F 74% 30.02 in 10.0 mi South 4.6 mph - N/A   Clear
6:53 PM 84.0 °F 92.6 °F 75.9 °F 76% 30.01 in 10.0 mi South 6.9 mph - N/A   Clear
7:53 PM 81.0 °F 86.7 °F 75.0 °F 82% 30.02 in 10.0 mi SSE 5.8 mph - N/A   Mostly Cloudy
8:53 PM 78.8 °F - 75.2 °F 89% 30.00 in 10.0 mi SSE 5.8 mph - N/A   Clear
9:53 PM 78.1 °F - 75.0 °F 90% 30.01 in 9.0 mi South 5.8 mph - N/A   Clear
10:53 PM 78.1 °F - 75.0 °F 90% 30.01 in 9.0 mi SSE 6.9 mph - N/A   Clear
11:53 PM 78.1 °F - 75.0 °F 90% 30.00 in 9.0 mi South 8.1 mph - N/A   Partly Cloudy